Regional Weather Roundup
Issued by NWS

Home | Current Version | Previous Version | Text Only | Print | Product List | Glossary Off
Versions: 1 2 3 4 5 6 7 8 9 10 11 12 13 14 15 16 17 18 19 20 21 22 23 24 25 26 27 28 29 30 31 32 33 34 35 36 37 38 39 40 41 42 43 44 45 46 47 48 49 50

000
ASUS43 KFSD 261602
RWRSD

WEATHER ROUNDUP FOR SOUTH DAKOTA
NATIONAL WEATHER SERVICE SIOUX FALLS SD
1000 AM CST THU FEB 26 2015

NOTE: "FAIR" INDICATES FEW OR NO CLOUDS BELOW 12,000 FEET WITH NO
SIGNIFICANT WEATHER AND/OR OBSTRUCTIONS TO VISIBILITY.


SDZ001>005-009-010-012>017-261700-
NORTHWEST AND NORTH CENTRAL SOUTH DAKOTA

CITY           SKY/WX    TMP DP  RH WIND       PRES   REMARKS
BUFFALO          N/A     -3  -8  79 NW12      30.36R WCI -21
FAITH            N/A     -1  -8  72 N13       30.47S WCI -19
MOBRIDGE       SUNNY     -3 -12  65 NW12      30.52R WCI -21
$$

SDZ012>016-024>037-041>051-057-063-072>074-261700-
SOUTHWEST AND SOUTH CENTRAL SOUTH DAKOTA

CITY           SKY/WX    TMP DP  RH WIND       PRES   REMARKS
RAPID CTY ARPT PTSUNNY   -1  -7  75 N13       30.41S BLWGSNOWWCI -19
PIERRE         MOSUNNY   -1  -7  75 N12       30.55R WCI -18
CUSTER         SUNNY      4  -8  57 VRB3      30.13S
ELLSWORTH AFB  MOSUNNY    0  -6  78 N10       30.41R WCI -17
PHILIP         MOSUNNY    2  -6  69 NW13      30.52S WCI -15
PINE RIDGE     CLOUDY     4  -3  73 N12       30.39R WCI -12
WINNER         CLOUDY     3  -7  63 NW13      30.50S WCI -14
$$

SDZ004>011-016>023-039-040-261700-
NORTHEAST SOUTH DAKOTA

CITY           SKY/WX    TMP DP  RH WIND       PRES   REMARKS
ABERDEEN       MOSUNNY   -2 -12  62 N14       30.57R WCI -21
WATERTOWN      SUNNY     -5 -11  75 NW13      30.46R WCI -24
SISSETON         N/A     -5 -11  75 N16       30.53S WCI -27
$$

SDZ017-020-022-023-036>040-048>070-261700-
SOUTHEAST SOUTH DAKOTA

CITY           SKY/WX    TMP DP  RH WIND       PRES   REMARKS
SIOUX FALLS    MOSUNNY   -1 -10  65 N12       30.49R WCI -18
HURON          SUNNY     -5 -12  72 N12       30.57R WCI -23
MITCHELL       SUNNY      1  -5  75 N14       30.56S WCI -17
YANKTON        SUNNY      1  -6  71 NW16      30.54S WCI -18
$$

ABBREVIATIONS USED IN REMARKS
   TC - TEMPERATURE IN CELSIUS
  WCI - WIND CHILL INDEX
   HX - HEAT INDEX
  VSB - VISIBILITY



USA.gov is the U.S. government's official web portal to all federal, state and local government web resources and services.